Time,TemperatureF,DewpointF,PressureIn,WindDirection,WindDirectionDegrees,WindSpeedMPH,WindSpeedGustMPH,Humidity,HourlyPrecipIn,Conditions,Clouds,dailyrainin,SoftwareType,DateUTC
2013-03-02 00:00:00,48.7,23.5,29.88,SW,227,3.6,5.4,37,0.00,,---,0.00,VWS V14.01,2013-03-02 05:00:00,
2013-03-02 00:05:00,48.7,24.2,29.88,NW,308,3.1,5.8,38,0.00,,---,0.00,VWS V14.01,2013-03-02 05:05:00,
2013-03-02 00:10:00,48.6,24.6,29.91,WNW,294,0.0,0.0,39,0.00,,---,0.00,VWS V14.01,2013-03-02 05:10:00,
2013-03-02 00:15:00,48.6,24.0,29.91,WNW,293,0.0,2.7,38,0.00,,---,0.00,VWS V14.01,2013-03-02 05:15:00,
2013-03-02 00:20:00,48.4,24.5,29.91,West,265,4.9,4.9,39,0.00,,---,0.00,VWS V14.01,2013-03-02 05:20:00,
2013-03-02 00:25:00,48.4,24.5,29.88,West,264,4.0,4.0,39,0.00,,---,0.00,VWS V14.01,2013-03-02 05:25:00,
2013-03-02 00:30:00,48.2,24.3,29.88,SW,236,2.7,3.1,39,0.00,,---,0.00,VWS V14.01,2013-03-02 05:30:00,
2013-03-02 00:35:00,48.0,24.2,29.88,WNW,287,2.7,4.0,39,0.00,,---,0.00,VWS V14.01,2013-03-02 05:35:00,
2013-03-02 00:40:00,48.0,24.2,29.88,WNW,287,3.1,3.1,39,0.00,,---,0.00,VWS V14.01,2013-03-02 05:40:00,
2013-03-02 00:45:00,48.0,24.2,29.88,WNW,287,4.9,5.8,39,0.00,,---,0.00,VWS V14.01,2013-03-02 05:45:00,
2013-03-02 00:50:00,47.8,24.0,29.88,WNW,289,7.6,7.6,39,0.00,,---,0.00,VWS V14.01,2013-03-02 05:50:00,
2013-03-02 00:55:00,47.8,24.0,29.88,WNW,283,5.8,6.3,39,0.00,,---,0.00,VWS V14.01,2013-03-02 05:55:00,
2013-03-02 01:00:00,47.8,24.0,29.88,WNW,289,2.2,4.0,39,0.00,,---,0.00,VWS V14.01,2013-03-02 06:00:00,
2013-03-02 01:05:00,47.7,23.9,29.88,WNW,290,6.3,6.3,39,0.00,,---,0.00,VWS V14.01,2013-03-02 06:05:00,
2013-03-02 01:10:00,47.5,23.7,29.88,West,278,5.8,5.8,39,0.00,,---,0.00,VWS V14.01,2013-03-02 06:10:00,
2013-03-02 01:15:00,47.5,23.7,29.88,WSW,250,3.1,8.3,39,0.00,,---,0.00,VWS V14.01,2013-03-02 06:15:00,
2013-03-02 01:20:00,47.3,23.5,29.88,West,273,10.1,10.1,39,0.00,,---,0.00,VWS V14.01,2013-03-02 06:20:00,
2013-03-02 01:25:00,47.3,23.5,29.88,WNW,294,6.3,6.3,39,0.00,,---,0.00,VWS V14.01,2013-03-02 06:25:00,
2013-03-02 01:30:00,47.1,24.0,29.88,West,262,3.1,7.6,40,0.00,,---,0.00,VWS V14.01,2013-03-02 06:30:00,
2013-03-02 01:35:00,46.9,23.8,29.88,NNW,340,3.6,4.0,40,0.00,,---,0.00,VWS V14.01,2013-03-02 06:35:00,
2013-03-02 01:40:00,46.9,23.8,29.88,WNW,284,2.7,5.4,40,0.00,,---,0.00,VWS V14.01,2013-03-02 06:40:00,
2013-03-02 01:45:00,46.8,23.7,29.88,WNW,292,5.4,5.4,40,0.00,,---,0.00,VWS V14.01,2013-03-02 06:45:00,
2013-03-02 01:50:00,46.8,23.7,29.88,WNW,303,3.6,3.6,40,0.00,,---,0.00,VWS V14.01,2013-03-02 06:50:00,
2013-03-02 01:55:00,46.8,23.7,29.91,WNW,290,5.8,5.8,40,0.00,,---,0.00,VWS V14.01,2013-03-02 06:55:00,
2013-03-02 02:00:00,46.8,23.7,29.91,West,281,2.2,3.1,40,0.00,,---,0.00,VWS V14.01,2013-03-02 07:00:00,
2013-03-02 02:05:00,46.8,23.7,29.91,SSW,204,2.7,3.6,40,0.00,,---,0.00,VWS V14.01,2013-03-02 07:05:00,
2013-03-02 02:10:00,46.6,23.5,29.88,WNW,300,4.0,4.0,40,0.00,,---,0.00,VWS V14.01,2013-03-02 07:10:00,
2013-03-02 02:15:00,46.4,23.4,29.88,WNW,282,5.8,6.3,40,0.00,,---,0.00,VWS V14.01,2013-03-02 07:15:00,
2013-03-02 02:20:00,46.4,23.4,29.88,WNW,290,5.4,5.4,40,0.00,,---,0.00,VWS V14.01,2013-03-02 07:20:00,
2013-03-02 02:25:00,46.2,23.2,29.88,West,280,5.4,5.4,40,0.00,,---,0.00,VWS V14.01,2013-03-02 07:25:00,
2013-03-02 02:30:00,46.2,23.2,29.88,NW,319,0.0,2.7,40,0.00,,---,0.00,VWS V14.01,2013-03-02 07:30:00,
2013-03-02 02:35:00,46.0,23.0,29.88,NW,319,2.7,4.0,40,0.00,,---,0.00,VWS V14.01,2013-03-02 07:35:00,
2013-03-02 02:40:00,45.9,22.9,29.88,NW,306,3.6,5.4,40,0.00,,---,0.00,VWS V14.01,2013-03-02 07:40:00,
2013-03-02 02:45:00,45.9,22.9,29.88,NNW,343,3.1,5.8,40,0.00,,---,0.00,VWS V14.01,2013-03-02 07:45:00,
2013-03-02 02:50:00,45.7,23.3,29.88,ENE,71,3.6,6.3,41,0.00,,---,0.00,VWS V14.01,2013-03-02 07:50:00,
2013-03-02 02:55:00,45.5,23.2,29.88,WNW,287,2.2,2.2,41,0.00,,---,0.00,VWS V14.01,2013-03-02 07:55:00,
2013-03-02 03:00:00,45.3,23.0,29.88,WNW,287,6.3,6.3,41,0.00,,---,0.00,VWS V14.01,2013-03-02 08:00:00,
2013-03-02 03:05:00,45.3,23.6,29.88,NW,308,2.2,3.6,42,0.00,,---,0.00,VWS V14.01,2013-03-02 08:05:00,
2013-03-02 03:10:00,45.1,23.4,29.88,West,281,3.6,3.6,42,0.00,,---,0.00,VWS V14.01,2013-03-02 08:10:00,
2013-03-02 03:15:00,45.0,23.3,29.88,WNW,297,5.8,5.8,42,0.00,,---,0.00,VWS V14.01,2013-03-02 08:15:00,
2013-03-02 03:20:00,44.8,23.7,29.88,WNW,291,2.7,3.6,43,0.00,,---,0.00,VWS V14.01,2013-03-02 08:20:00,
2013-03-02 03:25:00,44.6,22.9,29.88,WNW,298,0.0,6.3,42,0.00,,---,0.00,VWS V14.01,2013-03-02 08:25:00,
2013-03-02 03:30:00,44.4,23.4,29.88,West,281,2.2,3.1,43,0.00,,---,0.00,VWS V14.01,2013-03-02 08:30:00,
2013-03-02 03:35:00,44.2,23.2,29.88,NNW,332,4.0,4.0,43,0.00,,---,0.00,VWS V14.01,2013-03-02 08:35:00,
2013-03-02 03:40:00,44.1,23.6,29.88,NNW,348,3.1,4.5,44,0.00,,---,0.00,VWS V14.01,2013-03-02 08:40:00,
2013-03-02 03:45:00,44.1,23.6,29.88,WNW,303,2.7,2.7,44,0.00,,---,0.00,VWS V14.01,2013-03-02 08:45:00,
2013-03-02 03:50:00,43.9,23.5,29.88,West,278,0.0,4.9,44,0.00,,---,0.00,VWS V14.01,2013-03-02 08:50:00,
2013-03-02 03:55:00,43.7,23.9,29.88,West,275,2.7,5.4,45,0.00,,---,0.00,VWS V14.01,2013-03-02 08:55:00,
2013-03-02 04:00:00,43.7,23.9,29.88,WNW,290,5.4,5.4,45,0.00,,---,0.00,VWS V14.01,2013-03-02 09:00:00,
2013-03-02 04:05:00,43.5,23.7,29.88,West,279,3.6,3.6,45,0.00,,---,0.00,VWS V14.01,2013-03-02 09:05:00,
2013-03-02 04:10:00,43.5,24.2,29.88,WNW,301,4.0,4.9,46,0.00,,---,0.00,VWS V14.01,2013-03-02 09:10:00,
2013-03-02 04:15:00,43.3,24.1,29.88,WNW,298,2.7,4.0,46,0.00,,---,0.00,VWS V14.01,2013-03-02 09:15:00,
2013-03-02 04:20:00,43.3,24.1,29.88,WSW,253,2.2,3.6,46,0.00,,---,0.00,VWS V14.01,2013-03-02 09:20:00,
2013-03-02 04:25:00,43.3,24.1,29.88,WNW,285,3.6,5.4,46,0.00,,---,0.00,VWS V14.01,2013-03-02 09:25:00,
2013-03-02 04:31:00,43.2,23.9,29.88,WNW,283,0.0,3.1,46,0.00,,---,0.00,VWS V14.01,2013-03-02 09:31:00,
2013-03-02 04:35:00,43.0,23.7,29.88,WNW,294,5.8,7.6,46,0.00,,---,0.00,VWS V14.01,2013-03-02 09:35:00,
2013-03-02 04:40:00,43.0,23.7,29.88,NW,304,4.0,4.0,46,0.00,,---,0.00,VWS V14.01,2013-03-02 09:40:00,
2013-03-02 04:45:00,43.0,24.3,29.88,West,274,0.0,0.0,47,0.00,,---,0.00,VWS V14.01,2013-03-02 09:45:00,
2013-03-02 04:50:00,42.8,24.1,29.88,WNW,287,3.6,3.6,47,0.00,,---,0.00,VWS V14.01,2013-03-02 09:50:00,
2013-03-02 04:55:00,42.6,24.5,29.91,WNW,289,3.1,4.0,48,0.00,,---,0.00,VWS V14.01,2013-03-02 09:55:00,
2013-03-02 05:00:00,42.4,24.3,29.91,West,279,0.0,2.7,48,0.00,,---,0.00,VWS V14.01,2013-03-02 10:00:00,
2013-03-02 05:05:00,42.3,24.6,29.91,West,279,2.7,3.1,49,0.00,,---,0.00,VWS V14.01,2013-03-02 10:05:00,
2013-03-02 05:10:00,42.1,25.0,29.88,West,279,0.0,0.0,50,0.00,,---,0.00,VWS V14.01,2013-03-02 10:10:00,
2013-03-02 05:16:00,41.9,25.3,29.88,West,279,0.0,0.0,51,0.00,,---,0.00,VWS V14.01,2013-03-02 10:16:00,
2013-03-02 05:21:00,41.7,25.1,29.88,West,279,0.0,0.0,51,0.00,,---,0.00,VWS V14.01,2013-03-02 10:21:00,
2013-03-02 05:26:00,41.5,25.0,29.88,WNW,297,0.0,2.7,51,0.00,,---,0.00,VWS V14.01,2013-03-02 10:26:00,
2013-03-02 05:31:00,41.5,25.0,29.88,West,281,0.0,2.7,51,0.00,,---,0.00,VWS V14.01,2013-03-02 10:31:00,
2013-03-02 05:36:00,41.5,25.5,29.88,West,281,0.0,0.0,52,0.00,,---,0.00,VWS V14.01,2013-03-02 10:36:00,
2013-03-02 05:41:00,41.4,25.3,29.88,West,266,0.0,0.0,52,0.00,,---,0.00,VWS V14.01,2013-03-02 10:41:00,
2013-03-02 05:46:00,41.2,25.1,29.88,West,267,0.0,0.0,52,0.00,,---,0.00,VWS V14.01,2013-03-02 10:46:00,
2013-03-02 05:51:00,41.0,25.4,29.88,West,267,0.0,0.0,54,0.00,,---,0.00,VWS V14.01,2013-03-02 10:51:00,
2013-03-02 05:56:00,40.8,25.7,29.88,West,271,2.2,2.2,55,0.00,,---,0.00,VWS V14.01,2013-03-02 10:56:00,
2013-03-02 06:01:00,40.8,25.7,29.88,West,271,0.0,3.6,55,0.00,,---,0.00,VWS V14.01,2013-03-02 11:01:00,
2013-03-02 06:06:00,40.6,25.6,29.88,West,271,0.0,0.0,55,0.00,,---,0.00,VWS V14.01,2013-03-02 11:06:00,
2013-03-02 06:11:00,40.6,26.0,29.88,WNW,295,0.0,2.7,56,0.00,,---,0.00,VWS V14.01,2013-03-02 11:11:00,
2013-03-02 06:16:00,40.6,26.0,29.88,WNW,288,0.0,0.0,56,0.00,,---,0.00,VWS V14.01,2013-03-02 11:16:00,
2013-03-02 06:21:00,40.6,26.0,29.88,NW,326,2.2,2.2,56,0.00,,---,0.00,VWS V14.01,2013-03-02 11:21:00,
2013-03-02 06:26:00,40.6,26.0,29.88,NW,326,0.0,0.0,56,0.00,,---,0.00,VWS V14.01,2013-03-02 11:26:00,
2013-03-02 06:31:00,40.6,26.0,29.88,NW,326,0.0,0.0,56,0.00,,---,0.00,VWS V14.01,2013-03-02 11:31:00,
2013-03-02 06:36:00,40.5,25.9,29.88,NW,326,0.0,0.0,56,0.00,,---,0.00,VWS V14.01,2013-03-02 11:36:00,
2013-03-02 06:41:00,40.5,26.3,29.88,WNW,291,0.0,0.0,57,0.00,,---,0.00,VWS V14.01,2013-03-02 11:41:00,
2013-03-02 06:46:00,40.3,26.1,29.88,West,271,0.0,2.2,57,0.00,,---,0.00,VWS V14.01,2013-03-02 11:46:00,
2013-03-02 06:51:00,40.1,26.0,29.88,West,271,0.0,0.0,57,0.00,,---,0.00,VWS V14.01,2013-03-02 11:51:00,
2013-03-02 06:56:00,39.9,25.8,29.88,West,271,0.0,0.0,57,0.00,,---,0.00,VWS V14.01,2013-03-02 11:56:00,
2013-03-02 07:01:00,39.7,26.5,29.88,WSW,247,0.0,0.0,59,0.00,,---,0.00,VWS V14.01,2013-03-02 12:01:00,
2013-03-02 07:06:00,39.7,26.1,29.88,WSW,247,0.0,0.0,58,0.00,,---,0.00,VWS V14.01,2013-03-02 12:06:00,
2013-03-02 07:11:00,39.9,26.7,29.88,WSW,253,0.0,0.0,59,0.00,,---,0.00,VWS V14.01,2013-03-02 12:11:00,
2013-03-02 07:16:00,39.7,26.5,29.88,WSW,253,0.0,0.0,59,0.00,,---,0.00,VWS V14.01,2013-03-02 12:16:00,
2013-03-02 07:21:00,39.7,27.0,29.88,WSW,253,0.0,0.0,60,0.00,,---,0.00,VWS V14.01,2013-03-02 12:21:00,
2013-03-02 07:26:00,39.7,26.5,29.88,WSW,253,0.0,0.0,59,0.00,,---,0.00,VWS V14.01,2013-03-02 12:26:00,
2013-03-02 07:31:00,39.7,26.5,29.88,WSW,253,0.0,0.0,59,0.00,,---,0.00,VWS V14.01,2013-03-02 12:31:00,
2013-03-02 07:36:00,39.7,27.0,29.88,WSW,254,0.0,0.0,60,0.00,,---,0.00,VWS V14.01,2013-03-02 12:36:00,
2013-03-02 07:41:00,39.7,27.4,29.88,WSW,253,0.0,0.0,61,0.00,,---,0.00,VWS V14.01,2013-03-02 12:41:00,
2013-03-02 07:46:00,40.3,26.6,29.88,SSW,199,2.7,2.7,58,0.00,,---,0.00,VWS V14.01,2013-03-02 12:46:00,
2013-03-02 07:51:00,41.2,25.6,29.88,SSW,208,2.2,3.1,54,0.00,,---,0.00,VWS V14.01,2013-03-02 12:51:00,
2013-03-02 07:56:00,42.1,26.0,29.91,SSW,208,0.0,0.0,52,0.00,,---,0.00,VWS V14.01,2013-03-02 12:56:00,
2013-03-02 08:01:00,43.0,26.3,29.91,SSW,213,0.0,2.7,51,0.00,,---,0.00,VWS V14.01,2013-03-02 13:01:00,
2013-03-02 08:06:00,43.7,24.9,29.91,SSW,197,0.0,3.1,47,0.00,,---,0.00,VWS V14.01,2013-03-02 13:06:00,
2013-03-02 08:11:00,46.6,24.1,29.91,SSW,197,0.0,2.7,41,0.00,,---,0.00,VWS V14.01,2013-03-02 13:11:00,
2013-03-02 08:15:00,49.6,25.6,29.91,NW,304,0.0,0.0,39,0.00,,---,0.00,VWS V14.01,2013-03-02 13:15:00,
2013-03-02 08:20:00,48.4,23.8,29.91,NW,326,5.4,5.8,38,0.00,,---,0.00,VWS V14.01,2013-03-02 13:20:00,
2013-03-02 08:25:00,48.0,24.2,29.91,WNW,289,3.6,3.6,39,0.00,,---,0.00,VWS V14.01,2013-03-02 13:25:00,
2013-03-02 08:30:00,48.6,24.0,29.91,WNW,292,6.3,6.3,38,0.00,,---,0.00,VWS V14.01,2013-03-02 13:30:00,
2013-03-02 08:35:00,50.7,21.6,29.91,West,261,2.7,3.6,31,0.00,,---,0.00,VWS V14.01,2013-03-02 13:35:00,
2013-03-02 08:40:00,51.3,22.0,29.91,WSW,250,2.7,2.7,31,0.00,,---,0.00,VWS V14.01,2013-03-02 13:40:00,
2013-03-02 08:45:00,50.5,21.4,29.91,SW,236,2.2,2.7,31,0.00,,---,0.00,VWS V14.01,2013-03-02 13:45:00,
2013-03-02 08:50:00,50.2,21.1,29.91,SW,221,3.6,3.6,31,0.00,,---,0.00,VWS V14.01,2013-03-02 13:50:00,
2013-03-02 08:55:00,49.5,21.2,29.91,SW,215,2.2,4.0,33,0.00,,---,0.00,VWS V14.01,2013-03-02 13:55:00,
2013-03-02 09:00:00,49.5,21.2,29.91,West,265,2.7,4.9,33,0.00,,---,0.00,VWS V14.01,2013-03-02 14:00:00,
2013-03-02 09:05:00,50.0,21.0,29.91,SSW,202,4.0,4.0,31,0.00,,---,0.00,VWS V14.01,2013-03-02 14:05:00,
2013-03-02 09:11:00,50.4,21.3,29.91,SSW,206,0.0,0.0,31,0.00,,---,0.00,VWS V14.01,2013-03-02 14:11:00,
2013-03-02 09:16:00,50.2,20.3,29.91,SW,222,3.6,3.6,30,0.00,,---,0.00,VWS V14.01,2013-03-02 14:16:00,
2013-03-02 09:21:00,50.4,20.5,29.91,West,268,4.9,5.4,30,0.00,,---,0.00,VWS V14.01,2013-03-02 14:21:00,
2013-03-02 09:26:00,50.4,19.6,29.91,NW,306,5.4,6.3,29,0.00,,---,0.00,VWS V14.01,2013-03-02 14:26:00,
2013-03-02 09:31:00,50.9,19.3,29.91,SSW,195,4.0,5.8,28,0.00,,---,0.00,VWS V14.01,2013-03-02 14:31:00,
2013-03-02 09:36:00,51.3,19.6,29.91,WNW,290,3.6,6.3,28,0.00,,---,0.00,VWS V14.01,2013-03-02 14:36:00,
2013-03-02 09:41:00,51.4,19.7,29.88,WNW,284,0.0,4.0,28,0.00,,---,0.00,VWS V14.01,2013-03-02 14:41:00,
2013-03-02 09:46:00,53.6,19.8,29.88,WNW,290,6.3,8.1,26,0.00,,---,0.00,VWS V14.01,2013-03-02 14:46:00,
2013-03-02 09:51:00,56.5,19.2,29.88,WNW,284,2.7,7.6,23,0.00,,---,0.00,VWS V14.01,2013-03-02 14:51:00,
2013-03-02 09:56:00,58.1,20.6,29.88,West,266,4.5,4.9,23,0.00,,---,0.00,VWS V14.01,2013-03-02 14:56:00,
2013-03-02 10:01:00,55.4,18.3,29.88,WSW,240,2.7,3.6,23,0.00,,---,0.00,VWS V14.01,2013-03-02 15:01:00,
2013-03-02 10:06:00,54.7,18.8,29.88,WSW,242,6.3,10.1,24,0.00,,---,0.00,VWS V14.01,2013-03-02 15:06:00,
2013-03-02 10:11:00,56.1,16.7,29.88,SE,145,2.7,5.8,21,0.00,,---,0.00,VWS V14.01,2013-03-02 15:11:00,
2013-03-02 10:16:00,54.3,18.5,29.88,West,268,8.3,11.0,24,0.00,,---,0.00,VWS V14.01,2013-03-02 15:16:00,
2013-03-02 10:21:00,53.4,17.7,29.88,WNW,300,3.6,6.3,24,0.00,,---,0.00,VWS V14.01,2013-03-02 15:21:00,
2013-03-02 10:25:00,52.7,17.1,29.88,West,273,6.3,6.3,24,0.00,,---,0.00,VWS V14.01,2013-03-02 15:25:00,
2013-03-02 10:30:00,52.5,19.8,29.88,WNW,284,7.6,7.6,27,0.00,,---,0.00,VWS V14.01,2013-03-02 15:30:00,
2013-03-02 10:35:00,52.5,19.8,29.88,WNW,286,3.1,5.4,27,0.00,,---,0.00,VWS V14.01,2013-03-02 15:35:00,
2013-03-02 10:41:00,52.7,17.1,29.88,SSW,212,5.8,5.8,24,0.00,,---,0.00,VWS V14.01,2013-03-02 15:41:00,
2013-03-02 10:45:00,52.5,16.9,29.88,NNW,333,8.3,10.1,24,0.00,,---,0.00,VWS V14.01,2013-03-02 15:45:00,
2013-03-02 10:50:00,52.5,16.9,29.88,West,272,5.8,9.2,24,0.00,,---,0.00,VWS V14.01,2013-03-02 15:50:00,
2013-03-02 10:55:00,52.5,16.9,29.88,NW,325,8.3,12.3,24,0.00,,---,0.00,VWS V14.01,2013-03-02 15:55:00,
2013-03-02 11:00:00,52.9,17.2,29.88,WNW,303,5.4,5.8,24,0.00,,---,0.00,VWS V14.01,2013-03-02 16:00:00,
2013-03-02 11:06:00,53.4,17.7,29.88,SW,214,5.4,7.2,24,0.00,,---,0.00,VWS V14.01,2013-03-02 16:06:00,
2013-03-02 11:11:00,53.6,17.9,29.85,WNW,284,2.7,8.7,24,0.00,,---,0.00,VWS V14.01,2013-03-02 16:11:00,
2013-03-02 11:16:00,54.0,18.1,29.85,WSW,239,5.4,5.4,24,0.00,,---,0.00,VWS V14.01,2013-03-02 16:16:00,
2013-03-02 11:21:00,54.7,15.5,29.85,WNW,290,5.8,8.3,21,0.00,,---,0.00,VWS V14.01,2013-03-02 16:21:00,
2013-03-02 11:26:00,55.0,15.8,29.85,WSW,239,9.6,12.8,21,0.00,,---,0.00,VWS V14.01,2013-03-02 16:26:00,
2013-03-02 11:31:00,55.2,16.0,29.85,WNW,301,11.0,11.0,21,0.00,,---,0.00,VWS V14.01,2013-03-02 16:31:00,
2013-03-02 11:36:00,56.3,16.9,29.85,SSW,196,8.7,8.7,21,0.00,,---,0.00,VWS V14.01,2013-03-02 16:36:00,
2013-03-02 11:41:00,58.5,17.5,29.85,SW,233,2.7,5.4,20,0.00,,---,0.00,VWS V14.01,2013-03-02 16:41:00,
2013-03-02 11:46:00,59.5,15.8,29.85,SW,229,7.2,8.3,18,0.00,,---,0.00,VWS V14.01,2013-03-02 16:46:00,
2013-03-02 11:51:00,60.8,15.5,29.85,NW,322,3.1,9.6,17,0.00,,---,0.00,VWS V14.01,2013-03-02 16:51:00,
2013-03-02 11:56:00,63.0,17.2,29.85,South,173,2.7,10.5,17,0.00,,---,0.00,VWS V14.01,2013-03-02 16:56:00,
2013-03-02 12:01:00,65.7,17.9,29.85,WNW,283,5.8,10.5,16,0.00,,---,0.00,VWS V14.01,2013-03-02 17:01:00,
2013-03-02 12:06:00,66.9,18.9,29.85,WNW,283,3.6,11.4,16,0.00,,---,0.00,VWS V14.01,2013-03-02 17:06:00,
2013-03-02 12:11:00,63.3,17.5,29.85,NW,326,8.1,8.1,17,0.00,,---,0.00,VWS V14.01,2013-03-02 17:11:00,
2013-03-02 12:16:00,61.3,15.9,29.85,WNW,288,7.6,11.9,17,0.00,,---,0.00,VWS V14.01,2013-03-02 17:16:00,
2013-03-02 12:21:00,58.3,14.8,29.85,WNW,282,10.5,14.5,18,0.00,,---,0.00,VWS V14.01,2013-03-02 17:21:00,
2013-03-02 12:26:00,56.8,13.6,29.85,WNW,283,10.5,15.0,18,0.00,,---,0.00,VWS V14.01,2013-03-02 17:26:00,
2013-03-02 12:31:00,55.9,12.9,29.85,NW,305,8.7,11.0,18,0.00,,---,0.00,VWS V14.01,2013-03-02 17:31:00,
2013-03-02 12:36:00,55.4,12.4,29.85,NW,306,8.1,8.1,18,0.00,,---,0.00,VWS V14.01,2013-03-02 17:36:00,
2013-03-02 12:41:00,54.7,13.1,29.85,WNW,301,7.2,10.1,19,0.00,,---,0.00,VWS V14.01,2013-03-02 17:41:00,
2013-03-02 12:46:00,54.9,13.3,29.85,NW,314,6.3,13.6,19,0.00,,---,0.00,VWS V14.01,2013-03-02 17:46:00,
2013-03-02 12:51:00,57.7,14.4,29.85,North,353,2.2,4.9,18,0.00,,---,0.00,VWS V14.01,2013-03-02 17:51:00,
2013-03-02 12:56:00,59.2,15.5,29.85,West,270,8.7,8.7,18,0.00,,---,0.00,VWS V14.01,2013-03-02 17:56:00,
2013-03-02 13:01:00,59.4,15.7,29.85,WNW,289,7.2,9.6,18,0.00,,---,0.00,VWS V14.01,2013-03-02 18:01:00,
2013-03-02 13:06:00,59.2,15.5,29.85,West,281,13.2,15.4,18,0.00,,---,0.00,VWS V14.01,2013-03-02 18:06:00,
2013-03-02 13:11:00,58.6,15.1,29.85,West,279,13.2,13.2,18,0.00,,---,0.00,VWS V14.01,2013-03-02 18:11:00,
2013-03-02 13:16:00,59.9,16.1,29.85,NW,319,5.4,8.3,18,0.00,,---,0.00,VWS V14.01,2013-03-02 18:16:00,
2013-03-02 13:21:00,61.0,15.6,29.85,WSW,237,5.8,13.2,17,0.00,,---,0.00,VWS V14.01,2013-03-02 18:21:00,
2013-03-02 13:26:00,59.4,15.7,29.85,West,281,8.3,12.8,18,0.00,,---,0.00,VWS V14.01,2013-03-02 18:26:00,
2013-03-02 13:31:00,58.8,15.2,29.85,WSW,257,4.0,5.8,18,0.00,,---,0.00,VWS V14.01,2013-03-02 18:31:00,
2013-03-02 13:36:00,57.9,14.5,29.85,West,273,8.7,10.5,18,0.00,,---,0.00,VWS V14.01,2013-03-02 18:36:00,
2013-03-02 13:41:00,57.6,14.2,29.85,West,266,7.6,7.6,18,0.00,,---,0.00,VWS V14.01,2013-03-02 18:41:00,
2013-03-02 13:46:00,57.4,14.1,29.85,WSW,244,8.1,8.3,18,0.00,,---,0.00,VWS V14.01,2013-03-02 18:46:00,
2013-03-02 13:51:00,57.2,13.9,29.85,NW,325,5.8,5.8,18,0.00,,---,0.00,VWS V14.01,2013-03-02 18:51:00,
2013-03-02 13:56:00,57.4,14.1,29.83,North,5,8.3,10.1,18,0.00,,---,0.00,VWS V14.01,2013-03-02 18:56:00,
2013-03-02 14:01:00,57.0,13.8,29.83,NW,312,3.1,5.8,18,0.00,,---,0.00,VWS V14.01,2013-03-02 19:01:00,
2013-03-02 14:06:00,56.3,13.2,29.83,NNW,332,8.1,8.1,18,0.00,,---,0.00,VWS V14.01,2013-03-02 19:06:00,
2013-03-02 14:11:00,56.3,13.2,29.83,NW,310,10.5,10.5,18,0.00,,---,0.00,VWS V14.01,2013-03-02 19:11:00,
2013-03-02 14:16:00,56.5,13.3,29.83,NW,316,11.0,11.0,18,0.00,,---,0.00,VWS V14.01,2013-03-02 19:16:00,
2013-03-02 14:21:00,56.7,13.5,29.83,WNW,298,3.6,3.6,18,0.00,,---,0.00,VWS V14.01,2013-03-02 19:21:00,
2013-03-02 14:26:00,56.5,13.3,29.83,NNW,339,8.1,8.1,18,0.00,,---,0.00,VWS V14.01,2013-03-02 19:26:00,
2013-03-02 14:31:00,55.6,12.6,29.83,WNW,300,12.3,13.2,18,0.00,,---,0.00,VWS V14.01,2013-03-02 19:31:00,
2013-03-02 14:36:00,54.7,13.1,29.83,NW,323,8.3,8.3,19,0.00,,---,0.00,VWS V14.01,2013-03-02 19:36:00,
2013-03-02 14:41:00,54.3,12.8,29.83,WNW,282,10.1,11.0,19,0.00,,---,0.00,VWS V14.01,2013-03-02 19:41:00,
2013-03-02 14:46:00,54.0,12.5,29.83,West,265,8.7,8.7,19,0.00,,---,0.00,VWS V14.01,2013-03-02 19:46:00,
2013-03-02 14:51:00,54.3,12.8,29.83,WNW,289,3.1,3.1,19,0.00,,---,0.00,VWS V14.01,2013-03-02 19:51:00,
2013-03-02 14:56:00,54.7,13.1,29.83,WNW,301,3.6,8.3,19,0.00,,---,0.00,VWS V14.01,2013-03-02 19:56:00,
2013-03-02 15:01:00,54.7,13.1,29.83,WNW,298,8.3,8.3,19,0.00,,---,0.00,VWS V14.01,2013-03-02 20:01:00,
2013-03-02 15:06:00,54.5,13.0,29.83,WNW,297,5.4,5.4,19,0.00,,---,0.00,VWS V14.01,2013-03-02 20:06:00,
2013-03-02 15:11:00,53.2,11.9,29.83,SW,214,11.9,11.9,19,0.00,,---,0.00,VWS V14.01,2013-03-02 20:11:00,
2013-03-02 15:16:00,53.6,12.2,29.83,NW,304,15.0,15.0,19,0.00,,---,0.00,VWS V14.01,2013-03-02 20:16:00,
2013-03-02 15:21:00,54.0,14.9,29.83,WNW,293,3.1,3.1,21,0.00,,---,0.00,VWS V14.01,2013-03-02 20:21:00,
2013-03-02 15:26:00,53.8,14.8,29.83,WNW,294,9.6,9.6,21,0.00,,---,0.00,VWS V14.01,2013-03-02 20:26:00,
2013-03-02 15:31:00,53.6,14.6,29.83,SW,233,3.1,3.1,21,0.00,,---,0.00,VWS V14.01,2013-03-02 20:31:00,
2013-03-02 15:36:00,53.2,15.4,29.83,WSW,258,3.6,14.1,22,0.00,,---,0.00,VWS V14.01,2013-03-02 20:36:00,
2013-03-02 15:41:00,52.7,15.0,29.83,WNW,292,3.6,5.8,22,0.00,,---,0.00,VWS V14.01,2013-03-02 20:41:00,
2013-03-02 15:46:00,53.1,15.3,29.83,West,280,9.6,9.6,22,0.00,,---,0.00,VWS V14.01,2013-03-02 20:46:00,
2013-03-02 15:51:00,53.6,14.6,29.83,West,261,5.8,8.1,21,0.00,,---,0.00,VWS V14.01,2013-03-02 20:51:00,
2013-03-02 15:56:00,53.2,15.4,29.83,NW,313,8.1,8.3,22,0.00,,---,0.00,VWS V14.01,2013-03-02 20:56:00,
2013-03-02 16:01:00,53.2,15.4,29.83,WNW,294,11.0,11.0,22,0.00,,---,0.00,VWS V14.01,2013-03-02 21:01:00,
2013-03-02 16:06:00,53.4,15.6,29.83,NW,314,8.1,8.1,22,0.00,,---,0.00,VWS V14.01,2013-03-02 21:06:00,
2013-03-02 16:11:00,53.1,15.3,29.83,NNW,346,7.6,7.6,22,0.00,,---,0.00,VWS V14.01,2013-03-02 21:11:00,
2013-03-02 16:16:00,52.5,14.8,29.83,NW,307,4.0,7.2,22,0.00,,---,0.00,VWS V14.01,2013-03-02 21:16:00,
2013-03-02 16:21:00,52.5,14.8,29.83,WNW,292,8.3,8.3,22,0.00,,---,0.00,VWS V14.01,2013-03-02 21:21:00,
2013-03-02 16:26:00,52.2,14.5,29.83,NW,320,5.4,10.1,22,0.00,,---,0.00,VWS V14.01,2013-03-02 21:26:00,
2013-03-02 16:31:00,52.2,14.5,29.83,NNW,329,10.5,11.4,22,0.00,,---,0.00,VWS V14.01,2013-03-02 21:31:00,
2013-03-02 16:36:00,51.6,14.1,29.83,West,273,4.0,4.5,22,0.00,,---,0.00,VWS V14.01,2013-03-02 21:36:00,
2013-03-02 16:41:00,51.6,14.1,29.83,NNE,12,4.0,11.0,22,0.00,,---,0.00,VWS V14.01,2013-03-02 21:41:00,
2013-03-02 16:46:00,51.4,13.9,29.83,WSW,256,5.4,5.4,22,0.00,,---,0.00,VWS V14.01,2013-03-02 21:46:00,
2013-03-02 16:51:00,51.1,13.6,29.83,WNW,295,8.1,8.1,22,0.00,,---,0.00,VWS V14.01,2013-03-02 21:51:00,
2013-03-02 16:56:00,50.7,13.3,29.85,NW,321,8.3,8.3,22,0.00,,---,0.00,VWS V14.01,2013-03-02 21:56:00,
2013-03-02 17:01:00,50.5,13.2,29.85,NW,323,8.1,8.1,22,0.00,,---,0.00,VWS V14.01,2013-03-02 22:01:00,
2013-03-02 17:06:00,50.4,16.1,29.85,NNW,330,8.1,8.1,25,0.00,,---,0.00,VWS V14.01,2013-03-02 22:06:00,
2013-03-02 17:11:00,50.2,15.9,29.85,NW,307,4.0,8.7,25,0.00,,---,0.00,VWS V14.01,2013-03-02 22:11:00,
2013-03-02 17:16:00,49.8,15.6,29.85,WNW,293,5.8,8.3,25,0.00,,---,0.00,VWS V14.01,2013-03-02 22:16:00,
2013-03-02 17:21:00,49.5,15.3,29.85,WNW,302,3.1,5.8,25,0.00,,---,0.00,VWS V14.01,2013-03-02 22:21:00,
2013-03-02 17:26:00,49.3,15.1,29.85,WNW,286,4.0,6.3,25,0.00,,---,0.00,VWS V14.01,2013-03-02 22:26:00,
2013-03-02 17:31:00,49.1,15.0,29.85,NNW,334,6.3,7.6,25,0.00,,---,0.00,VWS V14.01,2013-03-02 22:31:00,
2013-03-02 17:36:00,48.9,14.8,29.85,WNW,293,5.4,5.8,25,0.00,,---,0.00,VWS V14.01,2013-03-02 22:36:00,
2013-03-02 17:41:00,48.6,16.4,29.85,NE,43,5.8,9.6,27,0.00,,---,0.00,VWS V14.01,2013-03-02 22:41:00,
2013-03-02 17:46:00,48.4,16.2,29.85,North,0,4.9,7.6,27,0.00,,---,0.00,VWS V14.01,2013-03-02 22:46:00,
2013-03-02 17:51:00,48.0,16.8,29.85,WNW,303,4.9,4.9,28,0.00,,---,0.00,VWS V14.01,2013-03-02 22:51:00,
2013-03-02 17:56:00,47.5,16.3,29.85,NNW,329,6.3,6.3,28,0.00,,---,0.00,VWS V14.01,2013-03-02 22:56:00,
2013-03-02 18:01:00,47.3,16.1,29.85,NW,305,2.7,7.6,28,0.00,,---,0.00,VWS V14.01,2013-03-02 23:01:00,
2013-03-02 18:06:00,47.1,16.0,29.85,WNW,298,4.0,8.7,28,0.00,,---,0.00,VWS V14.01,2013-03-02 23:06:00,
2013-03-02 18:11:00,46.8,15.7,29.85,NW,306,4.9,8.3,28,0.00,,---,0.00,VWS V14.01,2013-03-02 23:11:00,
2013-03-02 18:16:00,46.6,15.5,29.85,North,353,7.6,11.0,28,0.00,,---,0.00,VWS V14.01,2013-03-02 23:16:00,
2013-03-02 18:21:00,46.2,16.0,29.85,West,274,3.1,3.6,29,0.00,,---,0.00,VWS V14.01,2013-03-02 23:21:00,
2013-03-02 18:26:00,45.9,15.7,29.88,NW,312,6.3,6.3,29,0.00,,---,0.00,VWS V14.01,2013-03-02 23:26:00,
2013-03-02 18:31:00,45.5,16.2,29.88,NW,315,6.3,6.3,30,0.00,,---,0.00,VWS V14.01,2013-03-02 23:31:00,
2013-03-02 18:36:00,45.5,16.2,29.88,NW,304,6.3,6.3,30,0.00,,---,0.00,VWS V14.01,2013-03-02 23:36:00,
2013-03-02 18:41:00,45.3,16.1,29.88,NW,310,5.8,7.6,30,0.00,,---,0.00,VWS V14.01,2013-03-02 23:41:00,
2013-03-02 18:46:00,45.1,15.9,29.88,WNW,287,10.5,10.5,30,0.00,,---,0.00,VWS V14.01,2013-03-02 23:46:00,
2013-03-02 18:51:00,45.0,15.8,29.88,WNW,301,5.4,5.4,30,0.00,,---,0.00,VWS V14.01,2013-03-02 23:51:00,
2013-03-02 18:56:00,44.8,15.6,29.88,WNW,302,7.6,7.6,30,0.00,,---,0.00,VWS V14.01,2013-03-02 23:56:00,
2013-03-02 19:01:00,44.6,15.4,29.88,West,266,5.4,5.4,30,0.00,,---,0.00,VWS V14.01,2013-03-03 00:01:00,
2013-03-02 19:06:00,44.4,15.3,29.88,NW,304,7.2,7.2,30,0.00,,---,0.00,VWS V14.01,2013-03-03 00:06:00,
2013-03-02 19:11:00,44.2,15.1,29.88,NW,319,0.0,3.1,30,0.00,,---,0.00,VWS V14.01,2013-03-03 00:11:00,
2013-03-02 19:16:00,44.1,15.0,29.88,West,279,2.7,3.6,30,0.00,,---,0.00,VWS V14.01,2013-03-03 00:16:00,
2013-03-02 19:21:00,44.1,15.0,29.88,NW,316,6.3,6.3,30,0.00,,---,0.00,VWS V14.01,2013-03-03 00:21:00,
2013-03-02 19:26:00,43.7,15.4,29.91,WNW,303,5.4,8.7,31,0.00,,---,0.00,VWS V14.01,2013-03-03 00:26:00,
2013-03-02 19:31:00,43.7,15.4,29.91,West,280,5.4,6.3,31,0.00,,---,0.00,VWS V14.01,2013-03-03 00:31:00,
2013-03-02 19:36:00,43.5,15.3,29.91,West,271,0.0,3.1,31,0.00,,---,0.00,VWS V14.01,2013-03-03 00:36:00,
2013-03-02 19:41:00,43.5,15.3,29.91,WSW,256,3.6,3.6,31,0.00,,---,0.00,VWS V14.01,2013-03-03 00:41:00,
2013-03-02 19:46:00,43.3,15.1,29.91,NW,311,2.2,2.7,31,0.00,,---,0.00,VWS V14.01,2013-03-03 00:46:00,
2013-03-02 19:51:00,43.2,15.7,29.91,WNW,297,5.4,5.4,33,0.00,,---,0.00,VWS V14.01,2013-03-03 00:51:00,
2013-03-02 19:56:00,43.2,15.7,29.91,NNW,340,0.0,2.2,33,0.00,,---,0.00,VWS V14.01,2013-03-03 00:56:00,
2013-03-02 20:01:00,43.0,15.6,29.91,WNW,292,4.9,4.9,33,0.00,,---,0.00,VWS V14.01,2013-03-03 01:01:00,
2013-03-02 20:06:00,43.0,15.6,29.91,NW,306,2.7,3.1,33,0.00,,---,0.00,VWS V14.01,2013-03-03 01:06:00,
2013-03-02 20:11:00,42.8,15.4,29.91,NNW,328,0.0,0.0,33,0.00,,---,0.00,VWS V14.01,2013-03-03 01:11:00,
2013-03-02 20:16:00,42.8,16.1,29.91,North,1,0.0,3.6,34,0.00,,---,0.00,VWS V14.01,2013-03-03 01:16:00,
2013-03-02 20:21:00,42.6,16.7,29.91,WNW,299,5.8,5.8,35,0.00,,---,0.00,VWS V14.01,2013-03-03 01:21:00,
2013-03-02 20:26:00,42.4,15.8,29.91,NW,306,0.0,0.0,34,0.00,,---,0.00,VWS V14.01,2013-03-03 01:26:00,
2013-03-02 20:31:00,42.4,16.5,29.91,WNW,297,0.0,0.0,35,0.00,,---,0.00,VWS V14.01,2013-03-03 01:31:00,
2013-03-02 20:36:00,42.4,16.5,29.91,NW,320,0.0,0.0,35,0.00,,---,0.00,VWS V14.01,2013-03-03 01:36:00,
2013-03-02 20:41:00,42.3,17.0,29.91,NW,306,0.0,0.0,36,0.00,,---,0.00,VWS V14.01,2013-03-03 01:41:00,
2013-03-02 20:46:00,42.3,17.0,29.91,WNW,293,4.9,4.9,36,0.00,,---,0.00,VWS V14.01,2013-03-03 01:46:00,
2013-03-02 20:51:00,42.1,16.9,29.91,WNW,296,4.0,4.0,36,0.00,,---,0.00,VWS V14.01,2013-03-03 01:51:00,
2013-03-02 20:56:00,42.1,16.9,29.91,NW,304,4.0,4.0,36,0.00,,---,0.00,VWS V14.01,2013-03-03 01:56:00,
2013-03-02 21:01:00,42.1,16.9,29.91,WNW,293,0.0,0.0,36,0.00,,---,0.00,VWS V14.01,2013-03-03 02:01:00,
2013-03-02 21:06:00,41.9,16.7,29.91,NW,317,0.0,4.9,36,0.00,,---,0.00,VWS V14.01,2013-03-03 02:06:00,
2013-03-02 21:11:00,41.7,17.2,29.91,NNE,23,3.1,3.1,37,0.00,,---,0.00,VWS V14.01,2013-03-03 02:11:00,
2013-03-02 21:16:00,41.7,17.9,29.91,WNW,301,3.1,3.1,38,0.00,,---,0.00,VWS V14.01,2013-03-03 02:16:00,
2013-03-02 21:21:00,41.7,19.1,29.91,NNW,345,3.1,3.1,40,0.00,,---,0.00,VWS V14.01,2013-03-03 02:21:00,
2013-03-02 21:26:00,41.5,17.7,29.91,WNW,302,3.1,3.1,38,0.00,,---,0.00,VWS V14.01,2013-03-03 02:26:00,
2013-03-02 21:31:00,41.5,17.7,29.91,WNW,299,0.0,2.2,38,0.00,,---,0.00,VWS V14.01,2013-03-03 02:31:00,
2013-03-02 21:36:00,41.4,18.2,29.91,WNW,298,0.0,0.0,39,0.00,,---,0.00,VWS V14.01,2013-03-03 02:36:00,
2013-03-02 21:41:00,41.2,18.0,29.91,NW,304,4.5,4.5,39,0.00,,---,0.00,VWS V14.01,2013-03-03 02:41:00,
2013-03-02 21:46:00,41.2,18.6,29.91,WNW,298,3.1,3.1,40,0.00,,---,0.00,VWS V14.01,2013-03-03 02:46:00,
2013-03-02 21:51:00,41.2,18.6,29.91,NW,315,2.7,3.1,40,0.00,,---,0.00,VWS V14.01,2013-03-03 02:51:00,
2013-03-02 21:56:00,41.2,18.6,29.91,NW,304,0.0,0.0,40,0.00,,---,0.00,VWS V14.01,2013-03-03 02:56:00,
2013-03-02 22:01:00,41.2,18.6,29.91,NW,307,0.0,0.0,40,0.00,,---,0.00,VWS V14.01,2013-03-03 03:01:00,
2013-03-02 22:06:00,41.0,18.5,29.91,WNW,298,4.0,4.0,40,0.00,,---,0.00,VWS V14.01,2013-03-03 03:06:00,
2013-03-02 22:11:00,41.0,18.5,29.91,WNW,300,0.0,0.0,40,0.00,,---,0.00,VWS V14.01,2013-03-03 03:11:00,
2013-03-02 22:16:00,41.0,18.5,29.91,NW,309,4.9,4.9,40,0.00,,---,0.00,VWS V14.01,2013-03-03 03:16:00,
2013-03-02 22:21:00,41.0,18.5,29.91,WNW,291,3.6,4.0,40,0.00,,---,0.00,VWS V14.01,2013-03-03 03:21:00,
2013-03-02 22:26:00,40.8,18.9,29.91,NW,312,2.2,2.7,41,0.00,,---,0.00,VWS V14.01,2013-03-03 03:26:00,
2013-03-02 22:31:00,40.8,18.9,29.91,West,279,3.6,3.6,41,0.00,,---,0.00,VWS V14.01,2013-03-03 03:31:00,
2013-03-02 22:36:00,40.6,18.8,29.91,NW,318,3.1,3.6,41,0.00,,---,0.00,VWS V14.01,2013-03-03 03:36:00,
2013-03-02 22:41:00,40.6,18.8,29.91,WNW,301,3.1,4.0,41,0.00,,---,0.00,VWS V14.01,2013-03-03 03:41:00,
2013-03-02 22:46:00,40.6,18.8,29.91,NW,308,6.3,6.3,41,0.00,,---,0.00,VWS V14.01,2013-03-03 03:46:00,
2013-03-02 22:51:00,40.6,18.8,29.91,NW,313,3.1,4.0,41,0.00,,---,0.00,VWS V14.01,2013-03-03 03:51:00,
2013-03-02 22:56:00,40.6,18.8,29.91,NW,304,5.8,5.8,41,0.00,,---,0.00,VWS V14.01,2013-03-03 03:56:00,
2013-03-02 23:01:00,40.6,18.8,29.91,NW,315,5.4,6.3,41,0.00,,---,0.00,VWS V14.01,2013-03-03 04:01:00,
2013-03-02 23:06:00,40.6,18.8,29.91,WNW,293,2.2,2.7,41,0.00,,---,0.00,VWS V14.01,2013-03-03 04:06:00,
2013-03-02 23:11:00,40.5,18.6,29.91,WNW,295,0.0,0.0,41,0.00,,---,0.00,VWS V14.01,2013-03-03 04:11:00,
2013-03-02 23:16:00,40.5,18.6,29.91,NNW,328,4.9,4.9,41,0.00,,---,0.00,VWS V14.01,2013-03-03 04:16:00,
2013-03-02 23:21:00,40.5,18.6,29.91,NW,317,3.6,4.9,41,0.00,,---,0.00,VWS V14.01,2013-03-03 04:21:00,
2013-03-02 23:26:00,40.5,18.6,29.91,WNW,286,2.7,3.1,41,0.00,,---,0.00,VWS V14.01,2013-03-03 04:26:00,
2013-03-02 23:31:00,40.5,18.6,29.91,NW,318,0.0,2.2,41,0.00,,---,0.00,VWS V14.01,2013-03-03 04:31:00,
2013-03-02 23:36:00,40.5,18.6,29.91,NW,305,0.0,0.0,41,0.00,,---,0.00,VWS V14.01,2013-03-03 04:36:00,
2013-03-02 23:41:00,40.3,18.4,29.91,West,280,5.4,5.4,41,0.00,,---,0.00,VWS V14.01,2013-03-03 04:41:00,
2013-03-02 23:46:00,40.3,18.4,29.91,NNW,336,0.0,0.0,41,0.00,,---,0.00,VWS V14.01,2013-03-03 04:46:00,
2013-03-02 23:51:00,40.3,18.4,29.91,NW,319,4.0,4.0,41,0.00,,---,0.00,VWS V14.01,2013-03-03 04:51:00,
2013-03-02 23:56:00,40.1,18.3,29.91,NW,305,5.8,5.8,41,0.00,,---,0.00,VWS V14.01,2013-03-03 04:56:00,